Regional Weather Roundup
Issued by NWS

Home | Current Version | Previous Version | Graphics & Text | Print | Product List | Glossary On
Versions: 1 2 3 4 5 6 7 8 9 10 11 12 13 14 15 16 17 18 19 20 21 22 23 24 25 26 27 28 29 30 31 32 33 34 35 36 37 38 39 40 41 42 43 44 45 46 47 48 49 50
000
ASUS45 KCYS 220310
RWRWY

WYOMING REGIONAL WEATHER ROUNDUP
NATIONAL WEATHER SERVICE CHEYENNE WY
900 PM MDT THU MAY 21 2015

NOTE:  "FAIR" INDICATES FEW OR NO CLOUDS BELOW 12,000 FEET
WITH NO SIGNIFICANT WEATHER AND/OR OBSTRUCTIONS TO VISIBILITY.

WYZ001-220400-
YELLOWSTONE NATIONAL PARK

CITY           SKY/WX    TMP DP  RH WIND       PRES   REMARKS
LK YELLOWSTONE   N/A     42  35  76 CALM      30.08R
W YELLOWSTONE  NOT AVBL

$$
WYZ002>013-054>058-071-098>099-220400-
NORTHERN WYOMING

CITY           SKY/WX    TMP DP  RH WIND       PRES   REMARKS
JACKSON        FAIR      48  39  71 SW18G25   30.00R
CODY           FAIR      54  41  62 W6        30.00R
GREYBULL       FAIR      63  38  39 SW6       29.94R
WORLAND        FAIR      59  42  53 SE17      29.95R
SHERIDAN       MOCLDY    55  41  59 SE16G25   30.01S
BUFFALO        CLOUDY    52  42  69 S12       30.07S
GILLETTE       FAIR      50  41  71 SE14      30.08F
HULETT         FAIR      52  37  58 S9        30.12R
NEWCASTLE      CLOUDY    52  37  58 SE13G18   30.12S

$$
WYZ014>020-022>026-101>103-220400-
CENTRAL WYOMING

CITY           SKY/WX    TMP DP  RH WIND       PRES   REMARKS
BIG PINEY      FAIR      45  40  82 CALM      30.04S
PINEDALE       MOCLDY    45  37  76 CALM      30.05F
DUBOIS         MOCLDY    46  36  66 S22       30.04R THUNDER
LANDER         FAIR      49  42  77 SE12      30.00R
RIVERTON         N/A    N/A N/A N/A MISG      30.04R
CASPER         CLOUDY    52  40  63 E14       30.03S
DOUGLAS        FAIR      49  42  77 SE13      30.07S

$$
WYZ021-027>030-104>119-220400-
SOUTHERN WYOMING

CITY           SKY/WX    TMP DP  RH WIND       PRES   REMARKS
EVANSTON       MOCLDY    45  41  86 E5        30.03S
KEMMERER       FAIR      41  37  87 NW3       30.05R
FORT BRIDGER   CLOUDY    45  45 100 W5        30.06F
ROCK SPRINGS   MOCLDY    47  40  76 NE12      30.02R
DIXON          CLOUDY    53  40  61 N7        30.03R
RAWLINS        CLOUDY    47  41  80 NE13      30.03S
SARATOGA       FAIR      46  39  76 SE6       30.03F
LARAMIE        CLOUDY    44  39  82 SE20      30.09F
CHEYENNE       CLOUDY    47  42  83 S15       30.12R
TORRINGTON     CLOUDY    51  43  74 SE12      30.09S
PINE BLUFFS    CLOUDY    48  43  81 S15G22    30.13S

$$


USA.gov is the U.S. government's official web portal to all federal, state and local government web resources and services.